Year,Month,Day,Hour,Minute,Value (Times are PST for temperature in C)
2014,06,23,00,00,12.90
2014,06,23,00,01,12.80
2014,06,23,00,02,12.80
2014,06,23,00,03,12.80
2014,06,23,00,04,12.70
2014,06,23,00,05,12.70
2014,06,23,00,06,12.70
2014,06,23,00,07,12.70
2014,06,23,00,08,12.60
2014,06,23,00,09,12.60
2014,06,23,00,10,12.60
2014,06,23,00,11,12.50
2014,06,23,00,12,12.50
2014,06,23,00,13,12.50
2014,06,23,00,14,12.40
2014,06,23,00,15,12.40
2014,06,23,00,16,12.30
2014,06,23,00,17,12.30
2014,06,23,00,18,12.30
2014,06,23,00,19,12.20
2014,06,23,00,20,12.20
2014,06,23,00,21,12.20
2014,06,23,00,22,12.10
2014,06,23,00,23,12.10
2014,06,23,00,24,12.10
2014,06,23,00,25,12.10
2014,06,23,00,26,12.10
2014,06,23,00,27,12.20
2014,06,23,00,28,12.20
2014,06,23,00,29,12.20
2014,06,23,00,30,12.20
2014,06,23,00,31,12.20
2014,06,23,00,32,12.20
2014,06,23,00,33,12.20
2014,06,23,00,34,12.20
2014,06,23,00,35,12.20
2014,06,23,00,36,12.20
2014,06,23,00,37,12.10
2014,06,23,00,38,12.10
2014,06,23,00,39,12.10
2014,06,23,00,40,12.00
2014,06,23,00,41,12.00
2014,06,23,00,42,11.90
2014,06,23,00,43,11.90
2014,06,23,00,44,11.90
2014,06,23,00,45,11.90
2014,06,23,00,46,11.80
2014,06,23,00,47,11.80
2014,06,23,00,48,11.80
2014,06,23,00,49,11.80
2014,06,23,00,50,11.70
2014,06,23,00,51,11.70
2014,06,23,00,52,11.70
2014,06,23,00,53,11.70
2014,06,23,00,54,11.70
2014,06,23,00,55,11.60
2014,06,23,00,56,11.60
2014,06,23,00,57,11.60
2014,06,23,00,58,11.60
2014,06,23,00,59,11.60
2014,06,23,01,00,11.50
2014,06,23,01,01,11.50
2014,06,23,01,02,11.50
2014,06,23,01,03,11.50
2014,06,23,01,04,11.50
2014,06,23,01,05,11.50
2014,06,23,01,06,11.60
2014,06,23,01,07,11.60
2014,06,23,01,08,11.60
2014,06,23,01,09,11.60
2014,06,23,01,10,11.50
2014,06,23,01,11,11.50
2014,06,23,01,12,11.50
2014,06,23,01,13,11.50
2014,06,23,01,14,11.40
2014,06,23,01,15,11.40
2014,06,23,01,16,11.40
2014,06,23,01,17,11.40
2014,06,23,01,18,11.40
2014,06,23,01,19,11.40
2014,06,23,01,20,11.40
2014,06,23,01,21,11.40
2014,06,23,01,22,11.40
2014,06,23,01,23,11.40
2014,06,23,01,24,11.40
2014,06,23,01,25,11.40
2014,06,23,01,26,11.40
2014,06,23,01,27,11.30
2014,06,23,01,28,11.30
2014,06,23,01,29,11.30
2014,06,23,01,30,11.30
2014,06,23,01,31,11.30
2014,06,23,01,32,11.30
2014,06,23,01,33,11.20
2014,06,23,01,34,11.20
2014,06,23,01,35,11.20
2014,06,23,01,36,11.20
2014,06,23,01,37,11.20
2014,06,23,01,38,11.20
2014,06,23,01,39,11.10
2014,06,23,01,40,11.10
2014,06,23,01,41,11.10
2014,06,23,01,42,11.00
2014,06,23,01,43,11.00
2014,06,23,01,44,11.00
2014,06,23,01,45,10.90
2014,06,23,01,46,10.90
2014,06,23,01,47,10.90
2014,06,23,01,48,10.90
2014,06,23,01,49,10.90
2014,06,23,01,50,10.90
2014,06,23,01,51,10.90
2014,06,23,01,52,10.90
2014,06,23,01,53,10.90
2014,06,23,01,54,10.90
2014,06,23,01,55,10.80
2014,06,23,01,56,10.80
2014,06,23,01,57,10.80
2014,06,23,01,58,10.80
2014,06,23,01,59,10.80
2014,06,23,02,00,10.80
2014,06,23,02,01,10.80
2014,06,23,02,02,10.70
2014,06,23,02,03,10.70
2014,06,23,02,04,10.70
2014,06,23,02,05,10.70
2014,06,23,02,06,10.70
2014,06,23,02,07,10.70
2014,06,23,02,08,10.70
2014,06,23,02,09,10.70
2014,06,23,02,10,10.70
2014,06,23,02,11,10.70
2014,06,23,02,12,10.70
2014,06,23,02,13,10.70
2014,06,23,02,14,10.70
2014,06,23,02,15,10.80
2014,06,23,02,16,10.80
2014,06,23,02,17,10.80
2014,06,23,02,18,10.80
2014,06,23,02,19,10.80
2014,06,23,02,20,10.70
2014,06,23,02,21,10.70
2014,06,23,02,22,10.70
2014,06,23,02,23,10.70
2014,06,23,02,24,10.70
2014,06,23,02,25,10.70
2014,06,23,02,26,10.70
2014,06,23,02,27,10.70
2014,06,23,02,28,10.70
2014,06,23,02,29,10.70
2014,06,23,02,30,10.70
2014,06,23,02,31,10.70
2014,06,23,02,32,10.70
2014,06,23,02,33,10.70
2014,06,23,02,34,10.60
2014,06,23,02,35,10.60
2014,06,23,02,36,10.60
2014,06,23,02,37,10.60
2014,06,23,02,38,10.60
2014,06,23,02,39,10.60
2014,06,23,02,40,10.50
2014,06,23,02,41,10.50
2014,06,23,02,42,10.50
2014,06,23,02,43,10.50
2014,06,23,02,44,10.50
2014,06,23,02,45,10.50
2014,06,23,02,46,10.60
2014,06,23,02,47,10.60
2014,06,23,02,48,10.60
2014,06,23,02,49,10.60
2014,06,23,02,50,10.60
2014,06,23,02,51,10.60
2014,06,23,02,52,10.60
2014,06,23,02,53,10.50
2014,06,23,02,54,10.50
2014,06,23,02,55,10.50
2014,06,23,02,56,10.40
2014,06,23,02,57,10.40
2014,06,23,02,58,10.40
2014,06,23,02,59,10.30
2014,06,23,03,00,10.30
2014,06,23,03,01,10.30
2014,06,23,03,02,10.30
2014,06,23,03,03,10.30
2014,06,23,03,04,10.30
2014,06,23,03,05,10.30
2014,06,23,03,06,10.20
2014,06,23,03,07,10.30
2014,06,23,03,08,10.30
2014,06,23,03,09,10.30
2014,06,23,03,10,10.30
2014,06,23,03,11,10.30
2014,06,23,03,12,10.20
2014,06,23,03,13,10.20
2014,06,23,03,14,10.20
2014,06,23,03,15,10.20
2014,06,23,03,16,10.20
2014,06,23,03,17,10.20
2014,06,23,03,18,10.20
2014,06,23,03,19,10.20
2014,06,23,03,20,10.10
2014,06,23,03,21,10.10
2014,06,23,03,22,10.10
2014,06,23,03,23,10.20
2014,06,23,03,24,10.20
2014,06,23,03,25,10.10
2014,06,23,03,26,10.10
2014,06,23,03,27,10.10
2014,06,23,03,28,10.10
2014,06,23,03,29,10.10
2014,06,23,03,30,10.10
2014,06,23,03,31,10.10
2014,06,23,03,32,10.10
2014,06,23,03,33,10.10
2014,06,23,03,34,10.10
2014,06,23,03,35,10.10
2014,06,23,03,36,10.10
2014,06,23,03,37,10.10
2014,06,23,03,38,10.10
2014,06,23,03,39,10.00
2014,06,23,03,40,10.00
2014,06,23,03,41,10.00
2014,06,23,03,42,10.00
2014,06,23,03,43,9.90
2014,06,23,03,44,9.90
2014,06,23,03,45,9.90
2014,06,23,03,46,9.90
2014,06,23,03,47,9.90
2014,06,23,03,48,9.90
2014,06,23,03,49,9.90
2014,06,23,03,50,9.90
2014,06,23,03,51,9.90
2014,06,23,03,52,9.90
2014,06,23,03,53,9.90
2014,06,23,03,54,9.90
2014,06,23,03,55,9.90
2014,06,23,03,56,9.90
2014,06,23,03,57,9.90
2014,06,23,03,58,9.90
2014,06,23,03,59,9.90
2014,06,23,04,00,9.90
2014,06,23,04,01,9.90
2014,06,23,04,02,9.80
2014,06,23,04,03,9.80
2014,06,23,04,04,9.80
2014,06,23,04,05,9.80
2014,06,23,04,06,9.80
2014,06,23,04,07,9.80
2014,06,23,04,08,9.80
2014,06,23,04,09,9.80
2014,06,23,04,10,9.70
2014,06,23,04,11,9.70
2014,06,23,04,12,9.70
2014,06,23,04,13,9.70
2014,06,23,04,14,9.70
2014,06,23,04,15,9.70
2014,06,23,04,16,9.70
2014,06,23,04,17,9.70
2014,06,23,04,18,9.70
2014,06,23,04,19,9.70
2014,06,23,04,20,9.70
2014,06,23,04,21,9.70
2014,06,23,04,22,9.70
2014,06,23,04,23,9.70
2014,06,23,04,24,9.70
2014,06,23,04,25,9.70
2014,06,23,04,26,9.70
2014,06,23,04,27,9.70
2014,06,23,04,28,9.70
2014,06,23,04,29,9.70
2014,06,23,04,30,9.70
2014,06,23,04,31,9.60
2014,06,23,04,32,9.60
2014,06,23,04,33,9.60
2014,06,23,04,34,9.60
2014,06,23,04,35,9.60
2014,06,23,04,36,9.60
2014,06,23,04,37,9.60
2014,06,23,04,38,9.50
2014,06,23,04,39,9.50
2014,06,23,04,40,9.50
2014,06,23,04,41,9.50
2014,06,23,04,42,9.40
2014,06,23,04,43,9.40
2014,06,23,04,44,9.40
2014,06,23,04,45,9.40
2014,06,23,04,46,9.40
2014,06,23,04,47,9.40
2014,06,23,04,48,9.40
2014,06,23,04,49,9.40
2014,06,23,04,50,9.40
2014,06,23,04,51,9.40
2014,06,23,04,52,9.40
2014,06,23,04,53,9.40
2014,06,23,04,54,9.40
2014,06,23,04,55,9.40
2014,06,23,04,56,9.40
2014,06,23,04,57,9.40
2014,06,23,04,58,9.30
2014,06,23,04,59,9.30
2014,06,23,05,00,9.30
2014,06,23,05,01,9.30
2014,06,23,05,02,9.30
2014,06,23,05,03,9.30
2014,06,23,05,04,9.30
2014,06,23,05,05,9.30
2014,06,23,05,06,9.30
2014,06,23,05,07,9.30
2014,06,23,05,08,9.30
2014,06,23,05,09,9.30
2014,06,23,05,10,9.30
2014,06,23,05,11,9.30
2014,06,23,05,12,9.30
2014,06,23,05,13,9.30
2014,06,23,05,14,9.30
2014,06,23,05,15,9.30
2014,06,23,05,16,9.30
2014,06,23,05,17,9.30
2014,06,23,05,18,9.30
2014,06,23,05,19,9.30
2014,06,23,05,20,9.30
2014,06,23,05,21,9.30
2014,06,23,05,22,9.30
2014,06,23,05,23,9.30
2014,06,23,05,24,9.20
2014,06,23,05,25,9.20
2014,06,23,05,26,9.20
2014,06,23,05,27,9.20
2014,06,23,05,28,9.20
2014,06,23,05,29,9.20
2014,06,23,05,30,9.20
2014,06,23,05,31,9.20
2014,06,23,05,32,9.20
2014,06,23,05,33,9.20
2014,06,23,05,34,9.20
2014,06,23,05,35,9.20
2014,06,23,05,36,9.20
2014,06,23,05,37,9.20
2014,06,23,05,38,9.20
2014,06,23,05,39,9.20
2014,06,23,05,40,9.20
2014,06,23,05,41,9.20
2014,06,23,05,42,9.20
2014,06,23,05,43,9.20
2014,06,23,05,44,9.20
2014,06,23,05,45,9.20
2014,06,23,05,46,9.10
2014,06,23,05,47,9.10
2014,06,23,05,48,9.10
2014,06,23,05,49,9.10
2014,06,23,05,50,9.10
2014,06,23,05,51,9.10
2014,06,23,05,52,9.10
2014,06,23,05,53,9.20
2014,06,23,05,54,9.20
2014,06,23,05,55,9.20
2014,06,23,05,56,9.20
2014,06,23,05,57,9.20
2014,06,23,05,58,9.20
2014,06,23,05,59,9.20
2014,06,23,06,00,9.30
2014,06,23,06,01,9.30
2014,06,23,06,02,9.30
2014,06,23,06,03,9.30
2014,06,23,06,04,9.30
2014,06,23,06,05,9.30
2014,06,23,06,06,9.30
2014,06,23,06,07,9.40
2014,06,23,06,08,9.40
2014,06,23,06,09,9.40
2014,06,23,06,10,9.50
2014,06,23,06,11,9.50
2014,06,23,06,12,9.60
2014,06,23,06,13,9.60
2014,06,23,06,14,9.60
2014,06,23,06,15,9.60
2014,06,23,06,16,9.60
2014,06,23,06,17,9.70
2014,06,23,06,18,9.70
2014,06,23,06,19,9.70
2014,06,23,06,20,9.70
2014,06,23,06,21,9.70
2014,06,23,06,22,9.70
2014,06,23,06,23,9.70
2014,06,23,06,24,9.70
2014,06,23,06,25,9.70
2014,06,23,06,26,9.80
2014,06,23,06,27,9.80
2014,06,23,06,28,9.80
2014,06,23,06,29,9.90
2014,06,23,06,30,9.90
2014,06,23,06,31,10.00
2014,06,23,06,32,10.10
2014,06,23,06,33,10.20
2014,06,23,06,34,10.30
2014,06,23,06,35,10.40
2014,06,23,06,36,10.50
2014,06,23,06,37,10.60
2014,06,23,06,38,10.70
2014,06,23,06,39,10.70
2014,06,23,06,40,10.80
2014,06,23,06,41,10.90
2014,06,23,06,42,11.00
2014,06,23,06,43,11.00
2014,06,23,06,44,11.10
2014,06,23,06,45,11.20
2014,06,23,06,46,11.20
2014,06,23,06,47,11.30
2014,06,23,06,48,11.40
2014,06,23,06,49,11.40
2014,06,23,06,50,11.50
2014,06,23,06,51,11.60
2014,06,23,06,52,11.60
2014,06,23,06,53,11.70
2014,06,23,06,54,11.80
2014,06,23,06,55,11.90
2014,06,23,06,56,11.90
2014,06,23,06,57,12.00
2014,06,23,06,58,12.10
2014,06,23,06,59,12.20
2014,06,23,07,00,12.30
2014,06,23,07,01,12.40
2014,06,23,07,02,12.50
2014,06,23,07,03,12.60
2014,06,23,07,04,12.70
2014,06,23,07,05,12.70
2014,06,23,07,06,12.80
2014,06,23,07,07,12.90
2014,06,23,07,08,13.00
2014,06,23,07,09,13.10
2014,06,23,07,10,13.20
2014,06,23,07,11,13.20
2014,06,23,07,12,13.30
2014,06,23,07,13,13.40
2014,06,23,07,14,13.40
2014,06,23,07,15,13.50
2014,06,23,07,16,13.60
2014,06,23,07,17,13.70
2014,06,23,07,18,13.70
2014,06,23,07,19,13.80
2014,06,23,07,20,13.80
2014,06,23,07,21,13.90
2014,06,23,07,22,13.90
2014,06,23,07,23,14.00
2014,06,23,07,24,14.10
2014,06,23,07,25,14.10
2014,06,23,07,26,14.20
2014,06,23,07,27,14.30
2014,06,23,07,28,14.40
2014,06,23,07,29,14.50
2014,06,23,07,30,14.60
2014,06,23,07,31,14.70
2014,06,23,07,32,14.70
2014,06,23,07,33,14.80
2014,06,23,07,34,14.90
2014,06,23,07,35,14.90
2014,06,23,07,36,15.00
2014,06,23,07,37,15.00
2014,06,23,07,38,15.10
2014,06,23,07,39,15.10
2014,06,23,07,40,15.20
2014,06,23,07,41,15.20
2014,06,23,07,42,15.30
2014,06,23,07,43,15.30
2014,06,23,07,44,15.30
2014,06,23,07,45,15.40
2014,06,23,07,46,15.40
2014,06,23,07,47,15.40
2014,06,23,07,48,15.50
2014,06,23,07,49,15.50
2014,06,23,07,50,15.60
2014,06,23,07,51,15.60
2014,06,23,07,52,15.70
2014,06,23,07,53,15.70
2014,06,23,07,54,15.70
2014,06,23,07,55,15.80
2014,06,23,07,56,15.80
2014,06,23,07,57,15.90
2014,06,23,07,58,15.90
2014,06,23,07,59,16.00
2014,06,23,08,00,16.10
2014,06,23,08,01,16.10
2014,06,23,08,02,16.20
2014,06,23,08,03,16.20
2014,06,23,08,04,16.30
2014,06,23,08,05,16.30
2014,06,23,08,06,16.40
2014,06,23,08,07,16.40
2014,06,23,08,08,16.40
2014,06,23,08,09,16.40
2014,06,23,08,10,16.40
2014,06,23,08,11,16.40
2014,06,23,08,12,16.50
2014,06,23,08,13,16.50
2014,06,23,08,14,16.60
2014,06,23,08,15,16.60
2014,06,23,08,16,16.70
2014,06,23,08,17,16.70
2014,06,23,08,18,16.70
2014,06,23,08,19,16.70
2014,06,23,08,20,16.70
2014,06,23,08,21,16.70
2014,06,23,08,22,16.70
2014,06,23,08,23,16.70
2014,06,23,08,24,16.80
2014,06,23,08,25,16.90
2014,06,23,08,26,16.90
2014,06,23,08,27,16.90
2014,06,23,08,28,16.90
2014,06,23,08,29,17.00
2014,06,23,08,30,16.90
2014,06,23,08,31,17.00
2014,06,23,08,32,16.90
2014,06,23,08,33,16.90
2014,06,23,08,34,16.90
2014,06,23,08,35,16.90
2014,06,23,08,36,17.00
2014,06,23,08,37,17.00
2014,06,23,08,38,17.00
2014,06,23,08,39,17.10
2014,06,23,08,40,17.10
2014,06,23,08,41,17.10
2014,06,23,08,42,17.10
2014,06,23,08,43,17.10
2014,06,23,08,44,17.10
2014,06,23,08,45,17.10
2014,06,23,08,46,17.10
2014,06,23,08,47,17.10
2014,06,23,08,48,17.10
2014,06,23,08,49,17.10
2014,06,23,08,50,17.10
2014,06,23,08,51,17.10
2014,06,23,08,52,17.20
2014,06,23,08,53,17.20
2014,06,23,08,54,17.20
2014,06,23,08,55,17.20
2014,06,23,08,56,17.30
2014,06,23,08,57,17.30
2014,06,23,08,58,17.30
2014,06,23,08,59,17.40
2014,06,23,09,00,17.50
2014,06,23,09,01,17.60
2014,06,23,09,02,17.60
2014,06,23,09,03,17.70
2014,06,23,09,04,17.70
2014,06,23,09,05,17.80
2014,06,23,09,06,17.80
2014,06,23,09,07,17.80
2014,06,23,09,08,17.90
2014,06,23,09,09,17.90
2014,06,23,09,10,17.90
2014,06,23,09,11,18.00
2014,06,23,09,12,18.10
2014,06,23,09,13,18.10
2014,06,23,09,14,18.10
2014,06,23,09,15,18.10
2014,06,23,09,16,18.20
2014,06,23,09,17,18.20
2014,06,23,09,18,18.20
2014,06,23,09,19,18.30
2014,06,23,09,20,18.30
2014,06,23,09,21,18.30
2014,06,23,09,22,18.30
2014,06,23,09,23,18.40
2014,06,23,09,24,18.40
2014,06,23,09,25,18.40
2014,06,23,09,26,18.40
2014,06,23,09,27,18.50
2014,06,23,09,28,18.50
2014,06,23,09,29,18.60
2014,06,23,09,30,18.60
2014,06,23,09,31,18.60
2014,06,23,09,32,18.70
2014,06,23,09,33,18.70
2014,06,23,09,34,18.80
2014,06,23,09,35,18.80
2014,06,23,09,36,18.90
2014,06,23,09,37,19.00
2014,06,23,09,38,19.00
2014,06,23,09,39,19.10
2014,06,23,09,40,19.10
2014,06,23,09,41,19.10
2014,06,23,09,42,19.10
2014,06,23,09,43,19.10
2014,06,23,09,44,19.20
2014,06,23,09,45,19.20
2014,06,23,09,46,19.20
2014,06,23,09,47,19.20
2014,06,23,09,48,19.20
2014,06,23,09,49,19.20
2014,06,23,09,50,19.20
2014,06,23,09,51,19.10
2014,06,23,09,52,19.10
2014,06,23,09,53,19.10
2014,06,23,09,54,19.20
2014,06,23,09,55,19.30
2014,06,23,09,56,19.30
2014,06,23,09,57,19.30
2014,06,23,09,58,19.30
2014,06,23,09,59,19.30
2014,06,23,10,00,19.30
2014,06,23,10,01,19.30
2014,06,23,10,02,19.30
2014,06,23,10,03,19.30
2014,06,23,10,04,19.30
2014,06,23,10,05,19.30
2014,06,23,10,06,19.30
2014,06,23,10,07,19.40
2014,06,23,10,08,19.40
2014,06,23,10,09,19.50
2014,06,23,10,10,19.60
2014,06,23,10,11,19.60
2014,06,23,10,12,19.60
2014,06,23,10,13,19.70
2014,06,23,10,14,19.70
2014,06,23,10,15,19.70
2014,06,23,10,16,19.70
2014,06,23,10,17,19.70
2014,06,23,10,18,19.80
2014,06,23,10,19,19.80
2014,06,23,10,20,19.80
2014,06,23,10,21,19.80
2014,06,23,10,22,19.80
2014,06,23,10,23,19.80
2014,06,23,10,24,19.80
2014,06,23,10,25,19.80
2014,06,23,10,26,19.70
2014,06,23,10,27,19.60
2014,06,23,10,28,19.60
2014,06,23,10,29,19.50
2014,06,23,10,30,19.50
2014,06,23,10,31,19.40
2014,06,23,10,32,19.40
2014,06,23,10,33,19.40
2014,06,23,10,34,19.30
2014,06,23,10,35,19.30
2014,06,23,10,36,19.30
2014,06,23,10,37,19.30
2014,06,23,10,38,19.30
2014,06,23,10,39,19.30
2014,06,23,10,40,19.30
2014,06,23,10,41,19.30
2014,06,23,10,42,19.30
2014,06,23,10,43,19.30
2014,06,23,10,44,19.30
2014,06,23,10,45,19.30
2014,06,23,10,46,19.30
2014,06,23,10,47,19.30
2014,06,23,10,48,19.30
2014,06,23,10,49,19.30
2014,06,23,10,50,19.30
2014,06,23,10,51,19.30
2014,06,23,10,52,19.30
2014,06,23,10,53,19.30
2014,06,23,10,54,19.30
2014,06,23,10,55,19.30
2014,06,23,10,56,19.30
2014,06,23,10,57,19.30
2014,06,23,10,58,19.30
2014,06,23,10,59,19.30
2014,06,23,11,00,19.20
2014,06,23,11,01,19.20
2014,06,23,11,02,19.20
2014,06,23,11,03,19.20
2014,06,23,11,04,19.30
2014,06,23,11,05,19.30
2014,06,23,11,06,19.40
2014,06,23,11,07,19.40
2014,06,23,11,08,19.40
2014,06,23,11,09,19.50
2014,06,23,11,10,19.50
2014,06,23,11,11,19.60
2014,06,23,11,12,19.70
2014,06,23,11,13,19.70
2014,06,23,11,14,19.70
2014,06,23,11,15,19.70
2014,06,23,11,16,19.70
2014,06,23,11,17,19.70
2014,06,23,11,18,19.70
2014,06,23,11,19,19.70
2014,06,23,11,20,19.70
2014,06,23,11,21,19.70
2014,06,23,11,22,19.70
2014,06,23,11,23,19.70
2014,06,23,11,24,19.70
2014,06,23,11,25,19.70
2014,06,23,11,26,19.80
2014,06,23,11,27,19.80
2014,06,23,11,28,19.80
2014,06,23,11,29,19.80
2014,06,23,11,30,19.80
2014,06,23,11,31,19.80
2014,06,23,11,32,19.90
2014,06,23,11,33,19.90
2014,06,23,11,34,20.00
2014,06,23,11,35,20.00
2014,06,23,11,36,20.10
2014,06,23,11,37,20.10
2014,06,23,11,38,20.20
2014,06,23,11,39,20.20
2014,06,23,11,40,20.20
2014,06,23,11,41,20.10
2014,06,23,11,42,20.10
2014,06,23,11,43,20.10
2014,06,23,11,44,20.10
2014,06,23,11,45,20.10
2014,06,23,11,46,20.10
2014,06,23,11,47,20.10
2014,06,23,11,48,20.10
2014,06,23,11,49,20.10
2014,06,23,11,50,20.10
2014,06,23,11,51,20.20
2014,06,23,11,52,20.20
2014,06,23,11,53,20.20
2014,06,23,11,54,20.30
2014,06,23,11,55,20.30
2014,06,23,11,56,20.30
2014,06,23,11,57,20.30
2014,06,23,11,58,20.20
2014,06,23,11,59,20.20
2014,06,23,12,00,20.20
2014,06,23,12,01,20.20
2014,06,23,12,02,20.20
2014,06,23,12,03,20.30
2014,06,23,12,04,20.30
2014,06,23,12,05,20.30
2014,06,23,12,06,20.30
2014,06,23,12,07,20.30
2014,06,23,12,08,20.40
2014,06,23,12,09,20.30
2014,06,23,12,10,20.30
2014,06,23,12,11,20.30
2014,06,23,12,12,20.20
2014,06,23,12,13,20.10
2014,06,23,12,14,20.00
2014,06,23,12,15,20.00
2014,06,23,12,16,20.00
2014,06,23,12,17,20.00
2014,06,23,12,18,20.00
2014,06,23,12,19,20.00
2014,06,23,12,20,19.90
2014,06,23,12,21,19.90
2014,06,23,12,22,20.00
2014,06,23,12,23,20.00
2014,06,23,12,24,20.10
2014,06,23,12,25,20.10
2014,06,23,12,26,20.20
2014,06,23,12,27,20.20
2014,06,23,12,28,20.20
2014,06,23,12,29,20.20
2014,06,23,12,30,20.30
2014,06,23,12,31,20.30
2014,06,23,12,32,20.30
2014,06,23,12,33,20.30
2014,06,23,12,34,20.30
2014,06,23,12,35,20.30
2014,06,23,12,36,20.30
2014,06,23,12,37,20.40
2014,06,23,12,38,20.40
2014,06,23,12,39,20.40
2014,06,23,12,40,20.40
2014,06,23,12,41,20.40
2014,06,23,12,42,20.40
2014,06,23,12,43,20.30
2014,06,23,12,44,20.30
2014,06,23,12,45,20.30
2014,06,23,12,46,20.20
2014,06,23,12,47,20.20
2014,06,23,12,48,20.20
2014,06,23,12,49,20.20
2014,06,23,12,50,20.20
2014,06,23,12,51,20.20
2014,06,23,12,52,20.10
2014,06,23,12,53,20.10
2014,06,23,12,54,20.00
2014,06,23,12,55,19.90
2014,06,23,12,56,19.90
2014,06,23,12,57,19.80
2014,06,23,12,58,19.80
2014,06,23,12,59,19.80
2014,06,23,13,00,19.80
2014,06,23,13,01,19.80
2014,06,23,13,02,19.80
2014,06,23,13,03,19.80
2014,06,23,13,04,19.80
2014,06,23,13,05,19.80
2014,06,23,13,06,19.80
2014,06,23,13,07,19.80
2014,06,23,13,08,19.80
2014,06,23,13,09,19.80
2014,06,23,13,10,19.80
2014,06,23,13,11,19.80
2014,06,23,13,12,19.80
2014,06,23,13,13,19.70
2014,06,23,13,14,19.70
2014,06,23,13,15,19.60
2014,06,23,13,16,19.60
2014,06,23,13,17,19.50
2014,06,23,13,18,19.50
2014,06,23,13,19,19.40
2014,06,23,13,20,19.40
2014,06,23,13,21,19.40
2014,06,23,13,22,19.30
2014,06,23,13,23,19.30
2014,06,23,13,24,19.30
2014,06,23,13,25,19.30
2014,06,23,13,26,19.40
2014,06,23,13,27,19.40
2014,06,23,13,28,19.50
2014,06,23,13,29,19.50
2014,06,23,13,30,19.60
2014,06,23,13,31,19.70
2014,06,23,13,32,19.80
2014,06,23,13,33,19.80
2014,06,23,13,34,19.90
2014,06,23,13,35,20.00
2014,06,23,13,36,20.00
2014,06,23,13,37,20.10
2014,06,23,13,38,20.10
2014,06,23,13,39,20.20
2014,06,23,13,40,20.30
2014,06,23,13,41,20.30
2014,06,23,13,42,20.30
2014,06,23,13,43,20.30
2014,06,23,13,44,20.30
2014,06,23,13,45,20.40
2014,06,23,13,46,20.40
2014,06,23,13,47,20.50
2014,06,23,13,48,20.50
2014,06,23,13,49,20.60
2014,06,23,13,50,20.60
2014,06,23,13,51,20.60
2014,06,23,13,52,20.70
2014,06,23,13,53,20.70
2014,06,23,13,54,20.80
2014,06,23,13,55,20.80
2014,06,23,13,56,20.90
2014,06,23,13,57,21.00
2014,06,23,13,58,21.10
2014,06,23,13,59,21.10
2014,06,23,14,00,21.20
2014,06,23,14,01,21.20
2014,06,23,14,02,21.10
2014,06,23,14,03,21.10
2014,06,23,14,04,21.10
2014,06,23,14,05,21.10
2014,06,23,14,06,21.10
2014,06,23,14,07,21.10
2014,06,23,14,08,21.10
2014,06,23,14,09,21.10
2014,06,23,14,10,21.10
2014,06,23,14,11,21.10
2014,06,23,14,12,21.10
2014,06,23,14,13,21.10
2014,06,23,14,14,21.10
2014,06,23,14,15,21.10
2014,06,23,14,16,21.10
2014,06,23,14,17,21.10
2014,06,23,14,18,21.10
2014,06,23,14,19,21.20
2014,06,23,14,20,21.20
2014,06,23,14,21,21.30
2014,06,23,14,22,21.30
2014,06,23,14,23,21.40
2014,06,23,14,24,21.30
2014,06,23,14,25,21.30
2014,06,23,14,26,21.30
2014,06,23,14,27,21.20
2014,06,23,14,28,21.20
2014,06,23,14,29,21.10
2014,06,23,14,30,21.10
2014,06,23,14,31,21.00
2014,06,23,14,32,21.00
2014,06,23,14,33,20.90
2014,06,23,14,34,20.90
2014,06,23,14,35,20.90
2014,06,23,14,36,20.90
2014,06,23,14,37,20.90
2014,06,23,14,38,20.90
2014,06,23,14,39,20.90
2014,06,23,14,40,20.90
2014,06,23,14,41,20.90
2014,06,23,14,42,20.80
2014,06,23,14,43,20.80
2014,06,23,14,44,20.70
2014,06,23,14,45,20.60
2014,06,23,14,46,20.50
2014,06,23,14,47,20.50
2014,06,23,14,48,20.50
2014,06,23,14,49,20.40
2014,06,23,14,50,20.30
2014,06,23,14,51,20.30
2014,06,23,14,52,20.20
2014,06,23,14,53,20.20
2014,06,23,14,54,20.20
2014,06,23,14,55,20.20
2014,06,23,14,56,20.30
2014,06,23,14,57,20.30
2014,06,23,14,58,20.30
2014,06,23,14,59,20.30
2014,06,23,15,00,20.30
2014,06,23,15,01,20.30
2014,06,23,15,02,20.30
2014,06,23,15,03,20.30
2014,06,23,15,04,20.40
2014,06,23,15,05,20.40
2014,06,23,15,06,20.50
2014,06,23,15,07,20.50
2014,06,23,15,08,20.50
2014,06,23,15,09,20.60
2014,06,23,15,10,20.60
2014,06,23,15,11,20.60
2014,06,23,15,12,20.60
2014,06,23,15,13,20.60
2014,06,23,15,14,20.60
2014,06,23,15,15,20.50
2014,06,23,15,16,20.50
2014,06,23,15,17,20.40
2014,06,23,15,18,20.40
2014,06,23,15,19,20.40
2014,06,23,15,20,20.30
2014,06,23,15,21,20.30
2014,06,23,15,22,20.30
2014,06,23,15,23,20.20
2014,06,23,15,24,20.20
2014,06,23,15,25,20.20
2014,06,23,15,26,20.20
2014,06,23,15,27,20.20
2014,06,23,15,28,20.20
2014,06,23,15,29,20.10
2014,06,23,15,30,20.10
2014,06,23,15,31,20.10
2014,06,23,15,32,20.10
2014,06,23,15,33,20.00
2014,06,23,15,34,20.00
2014,06,23,15,35,20.00
2014,06,23,15,36,20.00
2014,06,23,15,37,20.00
2014,06,23,15,38,20.00
2014,06,23,15,39,20.00
2014,06,23,15,40,19.90
2014,06,23,15,41,19.90
2014,06,23,15,42,19.80
2014,06,23,15,43,19.80
2014,06,23,15,44,19.80
2014,06,23,15,45,19.80
2014,06,23,15,46,19.80
2014,06,23,15,47,19.80
2014,06,23,15,48,19.80
2014,06,23,15,49,19.70
2014,06,23,15,50,19.70
2014,06,23,15,51,19.70
2014,06,23,15,52,19.70
2014,06,23,15,53,19.70
2014,06,23,15,54,19.70
2014,06,23,15,55,19.60
2014,06,23,15,56,19.60
2014,06,23,15,57,19.60
2014,06,23,15,58,19.50
2014,06,23,15,59,19.50
2014,06,23,16,00,19.40
2014,06,23,16,01,19.40
2014,06,23,16,02,19.40
2014,06,23,16,03,19.40
2014,06,23,16,04,19.40
2014,06,23,16,05,19.40
2014,06,23,16,06,19.40
2014,06,23,16,07,19.40
2014,06,23,16,08,19.40
2014,06,23,16,09,19.40
2014,06,23,16,10,19.40
2014,06,23,16,11,19.40
2014,06,23,16,12,19.40
2014,06,23,16,13,19.40
2014,06,23,16,14,19.40
2014,06,23,16,15,19.40
2014,06,23,16,16,19.40
2014,06,23,16,17,19.30
2014,06,23,16,18,19.30
2014,06,23,16,19,19.30
2014,06,23,16,20,19.30
2014,06,23,16,21,19.30
2014,06,23,16,22,19.30
2014,06,23,16,23,19.30
2014,06,23,16,24,19.30
2014,06,23,16,25,19.30
2014,06,23,16,26,19.30
2014,06,23,16,27,19.30
2014,06,23,16,28,19.30
2014,06,23,16,29,19.30
2014,06,23,16,30,19.30
2014,06,23,16,31,19.20
2014,06,23,16,32,19.20
2014,06,23,16,33,19.20
2014,06,23,16,34,19.20
2014,06,23,16,35,19.20
2014,06,23,16,36,19.20
2014,06,23,16,37,19.10
2014,06,23,16,38,19.10
2014,06,23,16,39,19.10
2014,06,23,16,40,19.10
2014,06,23,16,41,19.10
2014,06,23,16,42,19.10
2014,06,23,16,43,19.00
2014,06,23,16,44,19.00
2014,06,23,16,45,19.00
2014,06,23,16,46,19.00
2014,06,23,16,47,18.90
2014,06,23,16,48,18.90
2014,06,23,16,49,18.90
2014,06,23,16,50,18.90
2014,06,23,16,51,18.80
2014,06,23,16,52,18.80
2014,06,23,16,53,18.70
2014,06,23,16,54,18.70
2014,06,23,16,55,18.70
2014,06,23,16,56,18.60
2014,06,23,16,57,18.60
2014,06,23,16,58,18.60
2014,06,23,16,59,18.60
2014,06,23,17,00,18.60
2014,06,23,17,01,18.60
2014,06,23,17,02,18.60
2014,06,23,17,03,18.60
2014,06,23,17,04,18.60
2014,06,23,17,05,18.60
2014,06,23,17,06,18.60
2014,06,23,17,07,18.60
2014,06,23,17,08,18.60
2014,06,23,17,09,18.70
2014,06,23,17,10,18.70
2014,06,23,17,11,18.70
2014,06,23,17,12,18.70
2014,06,23,17,13,18.70
2014,06,23,17,14,18.70
2014,06,23,17,15,18.70
2014,06,23,17,16,18.70
2014,06,23,17,17,18.70
2014,06,23,17,18,18.70
2014,06,23,17,19,18.70
2014,06,23,17,20,18.70
2014,06,23,17,21,18.70
2014,06,23,17,22,18.70
2014,06,23,17,23,18.70
2014,06,23,17,24,18.70
2014,06,23,17,25,18.70
2014,06,23,17,26,18.70